Preview of NWS' New Version of Forecast
This preview is not operational and should not be used for support decisions.

Regional Weather Roundup (RWR)

Issued by National Weather Service (NWS)

                            
000
ASUS43 KTOP 191408
RWRKS 

WEATHER ROUNDUP FOR KANSAS
NATIONAL WEATHER SERVICE GOODLAND KS
900 AM CDT FRI APR 19 2019

NOTE:  "FAIR" INDICATES FEW OR NO CLOUDS BELOW 12,000 FEET WITH NO
SIGNIFICANT WEATHER AND/OR OBSTRUCTIONS TO VISIBILITY.

KSZ001>006-013>018-027>032-041>047-191500-
NORTHWEST KANSAS
  
CITY           SKY/WX    TMP DP  RH WIND       PRES   REMARKS
GOODLAND       SUNNY     46  31  55 W9        30.19R                  
HAYS           SUNNY     45  35  68 NW10      30.18S                  
HILL CITY      SUNNY     47  34  60 N16       30.19R                  
RUSSELL        SUNNY     45  36  70 NW12      30.16R                  
$$

KSZ061>065-074>080-084>089-191500-
SOUTHWEST KANSAS
  
CITY           SKY/WX    TMP DP  RH WIND       PRES   REMARKS
DODGE CITY     SUNNY     46  33  60 NW8       30.20R                  
ELKHART        SUNNY     48  35  60 W6        30.23S                  
GARDEN CITY    SUNNY     45  32  60 NW13      30.20R                  
GREAT BEND       N/A     44  36  73 NW14      30.17R                  
LIBERAL        SUNNY     47  32  56 N12       30.23R                  
PRATT          SUNNY     45  38  76 NW12      30.16S                  
$$

KSZ066>073-081>083-090>101-191500-
SOUTHEAST KANSAS
  
CITY           SKY/WX    TMP DP  RH WIND       PRES   REMARKS
CHANUTE        SUNNY     52  40  63 N10G24    30.05R                  
COFFEYVILLE    SUNNY     51  41  68 N16G28    30.04R                  
HUTCHINSON     SUNNY     49  37  63 N17       30.13R                  
MEDICINE LODGE   N/A     47  36  65 NW10      30.16R                  
NEWTON         SUNNY     47  39  74 N17       30.12R                  
PARSONS        SUNNY     51  41  68 N12G23    30.06R                  
WICHITA INTL   SUNNY     49  36  61 N17G25    30.11R                  
WICHITA JABRA  SUNNY     48  38  68 N16       30.11R                  
WICHITA MCCONL SUNNY     47  37  68 N14       30.11R                  
WINFIELD       SUNNY     50  40  68 N15       30.11R                  
$$

KSZ007>012-019>026-033>040-048>060-102>105-191500-
NORTHEAST KANSAS
  
CITY           SKY/WX    TMP DP  RH WIND       PRES   REMARKS
CONCORDIA        N/A    N/A N/A N/A MISG      30.14R                  
EMPORIA        SUNNY     48  40  73 NW15G21   30.08R                  
LAWRENCE       SUNNY     50  40  68 N16G24    30.06R                  
MANHATTAN      MOSUNNY   50  37  61 N7        30.11R                  
MARYSVILLE     SUNNY     46  37  71 N12       30.11S                  
OLATHE IND     SUNNY     48  41  76 N16       30.04R                  
OLATHE EXE     SUNNY     48  38  68 N14G25    30.03R                  
SALINA         SUNNY     47  38  71 NW17      30.15R                  
TOPEKA BILLARD SUNNY     51  40  65 N14       30.07R                  
TOPEKA FORBES  SUNNY     50  39  66 N14G22    30.06R                  
$$